Regional Weather Roundup
Issued by NWS Charleston, SC

Current Version | Previous Version | Graphics & Text | Print | Product List | Glossary On
Versions: 1 2 3 4 5 6 7 8 9 10 11 12 13 14 15 16 17 18 19 20 21 22 23 24 25 26 27 28 29 30 31 32 33 34 35 36 37 38 39 40 41 42 43 44 45 46 47 48 49 50
000
ASUS42 KCHS 271812
RWRCHS

REGIONAL WEATHER ROUNDUP
NATIONAL WEATHER SERVICE CHARLESTON SC
200 PM EDT MON APR 27 2015

NOTE: "FAIR" INDICATES FEW OR NO CLOUDS BELOW 12,000 FEET WITH NO
SIGNIFICANT WEATHER AND/OR OBSTRUCTIONS TO VISIBILITY.

NOT ALL STATIONS ARE QUALITY CONTROLLED BY THE NATIONAL
WEATHER SERVICE. USE DATA WITH CAUTION...ESPECIALLY
DEWPOINT OBSERVATIONS.

SCZ027-030-031-034>040-042>050-271900-
...SOUTHEAST SOUTH CAROLINA...

CITY           SKY/WX    TMP DP  RH WIND       PRES   REMARKS
N CHARLESTON   MOSUNNY   71  46  40 N9G21     29.81F
6HR MIN TEMP:  54; 6HR MAX TEMP:  71;

WATERFRONT PRK   N/A     68 N/A N/A N10         N/A
MOUNT PLEASANT FAIR      70  46  43 MISG      29.81F
PINOPOLIS      NOT AVBL
MONCKS CORNER  FAIR      68  48  49 NW6       29.82F
SUMMERVILLE    FAIR      70  50  49 NW7       29.83F
BEAUFORT MCAS  MOSUNNY   71  49  45 VRB6      29.82F
6HR MIN TEMP:  56; 6HR MAX TEMP:  72;

BEAUFORT ARPT  FAIR      70  52  52 N9G18     29.81F HAZE
HILTON HEAD IS MOSUNNY   72  54  53 N6        29.83F
WALTERBORO     PTCLDY    70  46  43 N9        29.82F
ALLENDALE      FAIR      70  48  46 CALM      29.83S

...SOUTHERN MIDLANDS AND PEE DEE...

CITY           SKY/WX    TMP DP  RH WIND       PRES   REMARKS
GEORGETOWN     NOT AVBL
KINGSTREE      NOT AVBL
ORANGEBURG     PTSUNNY   68  43  40 NE8       29.81F
6HR MIN TEMP:  54; 6HR MAX TEMP:  70;

BARNWELL       FAIR      72  46  40 CALM      29.84F
AIKEN          FAIR      68  39  34 NW9       29.88S
MANNING        FAIR      68  32  26 W3        29.82F
COLUMBIA       MOSUNNY   70  43  37 VRB3      29.82F
6HR MIN TEMP:  55; 6HR MAX TEMP:  71;

SUMTER         MOSUNNY   70  44  38 N5        29.82F
6HR MIN TEMP:  53; 6HR MAX TEMP:  71;

FLORENCE       MOSUNNY   70  41  34 NW10      29.80F
6HR MIN TEMP:  52; 6HR MAX TEMP:  70;

MYRTLE BEACH   MOSUNNY   68  43  40 NW7       29.83F
N MYRTLE BEACH SUNNY     69  43  38 NW7       29.80F
6HR MIN TEMP:  52; 6HR MAX TEMP:  69;


$$

GAZ063-065-086>088-099>101-113>116-118-119-134>141-150-271900-
...SOUTHEAST GEORGIA...

CITY           SKY/WX    TMP DP  RH WIND       PRES   REMARKS
SAVANNAH ARPT  PTSUNNY   75  52  44 N9G18     29.82F
6HR MIN TEMP:  58; 6HR MAX TEMP:  75;

HUNTER AAF     MOSUNNY   72  55  55 VRB2      29.80F
6HR MIN TEMP:  58; 6HR MAX TEMP:  73;

FORT STEWART   PTSUNNY   72  56  57 VRB2      29.81S
6HR MIN TEMP:  59; 6HR MAX TEMP:  72;

STATESBORO       N/A     72  51  48 NE9       29.83R
SYLVANIA       CLEAR     71  53  53 N9        29.84S
CLAXTON        FAIR      72  55  56 NE3       29.84R

...CSRA...CENTRAL AND FAR SOUTHEAST GEORGIA...

CITY           SKY/WX    TMP DP  RH WIND       PRES   REMARKS
THOMSON        MOSUNNY   72  52  49 CALM      29.88S
AUGUSTA-BUSH   MOSUNNY   71  45  39 VRB5      29.83F
6HR MIN TEMP:  55; 6HR MAX TEMP:  71;

AUGUSTA-DANIEL MOSUNNY   71  45  39 NW10      29.85F
SWAINSBORO     NOT AVBL
VIDALIA        MOSUNNY   72  55  56 NE7       29.83R
EASTMAN        FAIR      74  56  53 NE6       29.88R
HAZLEHURST     FAIR      74  57  55 N7        29.82S
ALMA           CLOUDY    68  58  70 CALM      29.83S
6HR MIN TEMP:  63; 6HR MAX TEMP:  68;

WAYCROSS       CLOUDY    72  64  76 CALM      29.83S
JESUP          MOCLDY    70  63  78 E3        29.84R
BAXLEY         FAIR      72  59  64 CALM      29.83S
BRUNSWICK      CLOUDY    66  61  82 N5        29.84S
SAINT SIMONS   CLOUDY    65  61  87 NE9       29.82F
6HR MIN TEMP:  64; 6HR MAX TEMP:  68;


$$

SCZ027-028-034-036>038-045-046-048>050-GAZ119-141-271900-
...LAKE AND SUPPLEMENTAL COASTAL OBSERVATIONS...

STATION/POSITION TIME  TEMP    WIND        PRES    WAVE   SWELL
                       AIR SEA DIR/SP/G            HT/PER HT/PER/DIR
                 (UTC) (F)     (DEG/KT/KT) (MB)    (FT/S) (FT/S/D)
UPR LAKE MARION  NOT AVBL
WINYAH BAY       NOT AVBL
LAKE MURRAY      1700   63     200/  7/  9 1010.2F
ACE BASIN NERRS  1645   70     360/  3     1011.0
FORT PULASKI     1700   67 70  360/  8/ 10 1010.4F
SAPELO ISLAND    1700   63     360/  5     1010.0F

$$

ANZ835-935-AMZ111-154-330-350-352-354-370-450-454-472-271900-
...C-MAN AND BUOY OBSERVATIONS...

STATION/POSITION TIME  TEMP    WIND        PRES    WAVE   SWELL
                       AIR SEA DIR/SP/G            HT/PER HT/PER/DIR
                 (UTC) (F)     (DEG/KT/KT) (MB)    (FT/S) (FT/S/D)
BUOY 41004       1750   61 71   10/ 12/ 16 1009.2F   3/ 5   2/ 8
BUOY 41008       1750   63 69   20/ 10/ 12 1010.1F   3/ 6   2/ 60/ 6
FOLLY BEACH CMAN 1800   68      10/  6/  9 1009.6F
CAPERS NEARSHORE 1708   63      70/  8/ 12 1010.2F
FRIPP NEARSHORE  1700   65      10/ 12/ 14 1010.0F


STATION/POSITION TIME  TEMP    WIND        PRES    WAVE   SWELL
                       AIR SEA DIR/SP/G            HT/PER HT/PER/DIR
                 (UTC) (F)     (DEG/KT/KT) (MB)    (FT/S) (FT/S/D)
5E ST. MARYS GA  1721      71                N/A     3/ 6
FRYING PAN BUOY  1750   61 71   10/ 10/ 12 1010.0F   4/ 8   3/ 60/ 8
BUOY 41025       1750   61 74  330/ 10/ 14 1008.6F   5/10   5/ 70/10
CAPE LOOKOUT NC  1800   65     100/  2/  3 1008.3F
BUOY 41002       1750   68 71  300/ 12/ 14 1006.9R   5/ 7   5/330/ 7
BUOY 41010       1720   79 79  300/ 16/ 17 1007.5F
ST AUGUSTINE FL  1800   69 69   20/ 12/ 13 1010.0R


$$



USA.gov is the U.S. government's official web portal to all federal, state and local government web resources and services.